Terminal Aerodrome Forecast
Issued by NWS Upton, NY

Home | Current Version | Previous Version | Text Only | Print | Product List | Glossary On
Versions: 1 2 3 4 5 6 7 8 9 10 11 12 13 14 15 16 17 18 19 20 21 22 23 24 25 26 27 28 29 30 31
000
FTUS41 KOKX 221100
TAFLGA
TAF
KLGA 221121Z 2212/2312 10008KT P6SM SCT015 BKN100
      TEMPO 2213/2214 BKN020
     FM221400 09011KT P6SM SCT025 BKN035
     FM230200 08009KT P6SM BKN020 OVC035=

USA.gov is the U.S. government's official web portal to all federal, state and local government web resources and services.